Flag for Germany Weather past 2 weeks in Konstanz, Baden-Württemberg, Germany

Now
38 °F

Overcast.


Feels Like: 36 °F
Forecast: 29 / 38 °F
Wind: 3 mph from West

Location: Konstanz

Current Time: Dec 25, 2014 at 11:09:50 PM

Latest Report: Dec 25, 2014 at 10:00 PM


Visibility: 34 mi

Pressure: 30.44 "Hg

Humidity: 79%

Dew point: 32 °F

Location of KonstanzLocation

Historic Weather in Konstanz — Graph

°F

Konstanz temperature yesterday

Maximum temperature yesterday: 46 °F (at 4:00 PM)
Minimum temperature yesterday: 34 °F (at 2:00 AM)
Average temperature yesterday: 40 °F

Past Weeks' High & Low Weather Summary

 TemperatureHumidityPressure
High54 °F (Dec 19, 2:00 PM)100% (Dec 16, 3:00 AM)30.59 "Hg (Dec 16, 3:00 AM)
Low34 °F (Dec 24, 2:00 AM)49% (Dec 13, 2:00 PM)29.85 "Hg (Dec 12, 10:00 PM)
Average43 °F78%30.18 "Hg
* Reported Dec 10 10:00 PM — Dec 25 10:00 PM, Konstanz, Weather by CustomWeather, © 2014

Note: Actual official high and low records may vary slightly from our data, if they occured in-between our weather recording intervals... More about our weather records

Advertising

Konstanz weather history for previous 24 hours

 ConditionsComfort  
Time TempWeatherWind HumidityBarometerVisibility
10:00 PM
Dec 25
38 °FOvercast.3 mph79%30.44 "Hg34 mi
9:00 PM38 °FOvercast.3 mph80%30.43 "Hg28 mi
8:00 PM38 °FPassing clouds.3 mph82%30.43 "Hg28 mi
7:00 PM39 °FOvercast.2 mph82%30.42 "Hg28 mi
6:00 PM39 °FPassing clouds.3 mph71%30.40 "Hg43 mi
5:00 PM40 °FOvercast.5 mph67%30.38 "Hg22 mi
4:00 PM40 °FOvercast.7 mph63%30.36 "Hg19 mi
3:00 PM41 °FOvercast.3 mph71%30.35 "Hg19 mi
2:00 PM42 °FLight rain. Overcast.3 mph76%30.34 "Hg16 mi
1:00 PM43 °FOvercast.3 mph74%30.33 "Hg22 mi
12:00 PM44 °FOvercast.2 mph76%30.32 "Hg16 mi
11:00 AM44 °FSprinkles. Low clouds.5 mph85%30.32 "Hg5 mi
10:00 AM44 °FLow clouds.3 mph90%30.31 "Hg5 mi
9:00 AM43 °FLight rain. Low clouds.3 mph93%30.30 "Hg5 mi
8:00 AM42 °FLight rain. Low clouds.3 mph94%30.29 "Hg5 mi
7:00 AM42 °FLight rain. Low clouds.3 mph93%30.29 "Hg7 mi
6:00 AM42 °FLight rain. Overcast.3 mph93%30.29 "Hg7 mi
5:00 AM44 °FOvercast.5 mph83%30.28 "Hg16 mi
4:00 AM44 °FFog.3 mph78%30.28 "Hg16 mi
3:00 AM46 °FLight rain. Overcast.6 mph70%30.28 "Hg8 mi
2:00 AM46 °FOvercast.6 mph66%30.27 "Hg28 mi
1:00 AM46 °FOvercast.3 mph66%30.27 "Hg31 mi
12:00 AM45 °FPassing clouds.6 mph67%30.28 "Hg31 mi
11:00 PM
Dec 24
44 °FClear.5 mph68%30.29 "Hg22 mi
Weather by CustomWeather, © 2014

See weather overviewHow to use our weather pages